Kuchera_Ratio
0.0 0.0 0.0 0.0 0.0 0.0 0.0 0.0 0.0 0.0 0.0 0.0 0.0 0.0 0.0 0.0 0.0 0.0 0.0 0.0 0.0 0.0
0.0 0.0 0.0 0.0 0.0 0.0 0.0 0.0 0.0 0.0 0.0 0.0 0.0 0.0 0.0 0.0 0.0 0.0 0.0 0.0 0.0 0.0
0.0 0.0 0.0 0.0 0.0 0.0 0.0 0.0 0.0 0.0 0.0 0.0 0.0 0.0 0.0 0.0 0.0 0.0 0.0 0.0 0.0 0.0
0.0 0.0 0.0 0.0 0.0 0.0 0.0 0.0 0.0 0.0 0.0 0.0 0.0 0.0 0.0 0.0 0.0 0.0 0.0 0.0 0.0 0.0
0.0 0.0 0.0 0.0 0.0 0.0 0.0 0.0 0.0 0.0 0.0 0.0 0.0 0.0 0.0 0.0 0.0 0.0 0.0 0.0 0.0 0.0
0.0 0.0 0.0 0.0 0.0 0.0 0.0 0.0 0.0 0.0 0.0 0.0 0.0 0.0 0.0 0.0 0.0 0.0 0.0 0.0 0.0 0.0
0.0 0.0 0.0 0.0 0.0 0.0 0.0 0.0 0.0 0.0 0.0 0.0 0.0 0.0 0.0 0.0 0.0 0.0 0.0 0.0 0.0 0.0
0.0 0.0 0.0 0.0 0.0 0.0 0.0 0.0 0.0 0.0 0.0 0.0 0.0 0.0 0.0 0.0 0.0 0.0 1.0 2.2 2.9 2.4
0.0 0.0 0.0 0.0 0.0 0.0 0.0 0.0 0.0 0.0 0.0 0.0 0.0 0.0 0.0 0.0 0.9 2.5 4.7 5.1 5.7 5.1
0.0 0.0 0.0 0.0 0.0 0.0 0.0 0.0 0.0 0.0 0.0 0.0 0.0 0.0 0.0 0.0 3.4 5.9 6.4 7.4 7.2 6.4
0.0 0.7 1.1 2.1 3.0 3.8 3.5 3.6 4.0 4.1 3.2 1.7 0.0 0.0 0.0 2.2 7.0 8.0 8.1 7.7 7.5 7.2
0.8 3.1 4.1 5.3 5.7 5.4 5.8 6.7 7.2 6.6 6.8 7.1 6.2 1.6 2.5 6.2 8.4 8.7 8.3 6.3 6.1 3.5
2.6 3.7 4.9 4.9 6.2 5.4 5.4 6.8 5.8 7.3 6.0 4.1 7.3 2.8 3.7 6.3 6.6 8.5 5.9 2.7 2.3 2.5
1.6 2.9 4.0 5.6 4.9 6.9 6.9 6.7 7.1 6.6 4.8 3.3 0.6 0.6 0.0 0.0 0.5 2.1 3.0 3.3 3.5 2.7